Weather History for KDAB - February, 2013

Change the Weather History Date:

Friday, February 15, 2013

  Actual Average Record
Temperature  
Mean Temperature 59 °F 60 °F  
Max Temperature 67 °F 71 °F 85 °F (1959)
Min Temperature 50 °F 50 °F 26 °F (1943)
Degree Days  
Heating Degree Days 6 6  
Month to date heating degree days 67 99  
Since 1 July heating degree days 403 616  
Cooling Degree Days 0 1  
Month to date cooling degree days 28 15  
Year to date cooling degree days 97 44  
Growing Degree Days 8 (Base 50)    
Moisture  
Dew Point 50 °F    
Average Humidity 80    
Maximum Humidity 96    
Minimum Humidity 63    
Precipitation  
Precipitation T in 0.10 in 1.26 in (1952)
Month to date precipitation 0.58 1.44  
Year to date precipitation 1.06 4.18  
Sea Level Pressure  
Sea Level Pressure 30.04 in    
Wind  
Wind Speed 6 mph (NNW)    
Max Wind Speed 14 mph    
Max Gust Speed 18 mph    
Visibility 9 miles    
Events Rain    
T = Trace of Precipitation, MM = Missing Value Source: NWS Daily Summary

Daily Weather History Graph

Daily Weather History Graph

Search for Another Location

Airport or City:

Trip Planner

Search our weather history database for the weather conditions in past years. The results will help you decide how hot, cold, wet, or windy it might be!

Date:

Astronomy

Feb. 15, 2013 Rise Set
Actual Time 7:02 AM EST 6:14 PM EST
Civil Twilight 6:38 AM EST 6:38 PM EST
Nautical Twilight 6:10 AM EST 7:06 PM EST
Astronomical Twilight 5:43 AM EST 7:33 PM EST
Moon 10:08 AM EST (2/15) 11:40 PM EST (2/15)
Length of Visible Light 11h 59m
Length of Day
11h 11m
Waxing Crescent, 30% of the Moon is Illuminated
Feb 15
Waxing Crescent
Feb 17
First Quarter
Feb 25
Full
Mar 4
Last Quarter
Mar 11
New

Hourly Weather History & Observations

Time (EST) Temp. Dew Point Humidity Pressure Visibility Wind Dir Wind Speed Gust Speed Precip Events Conditions
12:22 AM 53.6 °F 51.8 °F 94% 30.04 in 10.0 mi NW 3.5 mph - 0.01 in Rain Light Rain
12:53 AM 53.1 °F 51.1 °F 93% 30.02 in 6.0 mi NW 3.5 mph - 0.01 in   Overcast
1:53 AM 53.1 °F 51.1 °F 93% 30.03 in 10.0 mi NNW 10.4 mph - N/A   Overcast
2:53 AM 52.0 °F 50.0 °F 93% 30.04 in 10.0 mi WNW 5.8 mph - N/A   Overcast
3:53 AM 51.1 °F 48.9 °F 92% 30.02 in 10.0 mi NW 5.8 mph - N/A   Overcast
4:17 AM 51.8 °F 48.2 °F 88% 30.03 in 7.0 mi NW 6.9 mph - N/A   Overcast
4:53 AM 51.1 °F 48.9 °F 92% 30.04 in 6.0 mi NW 5.8 mph - 0.00 in   Drizzle
5:41 AM 51.8 °F 48.2 °F 88% 30.02 in 9.0 mi Calm Calm - 0.00 in   Overcast
5:53 AM 51.1 °F 48.9 °F 92% 30.04 in 9.0 mi WNW 3.5 mph - 0.00 in   Overcast
6:10 AM 50.0 °F 48.2 °F 94% 30.06 in 9.0 mi NW 4.6 mph - N/A   Overcast
6:53 AM 50.0 °F 48.0 °F 93% 30.06 in 9.0 mi NW 5.8 mph - N/A   Overcast
7:53 AM 50.0 °F 48.0 °F 93% 30.08 in 8.0 mi NW 6.9 mph - N/A   Overcast
8:53 AM 51.1 °F 48.9 °F 92% 30.09 in 8.0 mi WNW 4.6 mph - N/A   Overcast
9:53 AM 53.1 °F 50.0 °F 89% 30.10 in 8.0 mi NW 5.8 mph - N/A   Overcast
10:24 AM 55.4 °F 51.8 °F 88% 30.10 in 9.0 mi NNW 4.6 mph - N/A   Mostly Cloudy
10:53 AM 57.9 °F 53.1 °F 84% 30.10 in 10.0 mi North 5.8 mph - N/A   Mostly Cloudy
11:53 AM 64.9 °F 53.1 °F 65% 30.07 in 10.0 mi North 8.1 mph - N/A   Scattered Clouds
12:53 PM 66.0 °F 53.1 °F 63% 30.05 in 10.0 mi NNE 9.2 mph - N/A   Scattered Clouds
1:19 PM 64.4 °F 51.8 °F 64% 30.04 in 10.0 mi NE 6.9 mph - N/A   Mostly Cloudy
1:53 PM 64.9 °F 52.0 °F 63% 30.02 in 10.0 mi NE 9.2 mph - N/A   Mostly Cloudy
2:53 PM 64.0 °F 52.0 °F 65% 30.00 in 10.0 mi NE 6.9 mph - N/A   Mostly Cloudy
3:53 PM 64.9 °F 51.1 °F 61% 30.00 in 10.0 mi NNE 11.5 mph - N/A   Scattered Clouds
4:53 PM 63.0 °F 51.1 °F 65% 30.00 in 10.0 mi NE 12.7 mph - N/A   Scattered Clouds
5:53 PM 61.0 °F 50.0 °F 67% 30.00 in 10.0 mi NNE 11.5 mph - N/A   Scattered Clouds
6:53 PM 59.0 °F 50.0 °F 72% 29.99 in 10.0 mi North 5.8 mph - N/A   Mostly Cloudy
7:53 PM 57.9 °F 50.0 °F 75% 30.00 in 10.0 mi NNE 4.6 mph - N/A   Partly Cloudy
8:53 PM 55.9 °F 48.9 °F 77% 30.00 in 10.0 mi NNW 3.5 mph - N/A   Clear
9:53 PM 52.0 °F 48.9 °F 89% 30.01 in 10.0 mi Calm Calm - N/A   Partly Cloudy
10:53 PM 51.1 °F 48.9 °F 92% 30.01 in 8.0 mi Calm Calm - N/A   Mostly Cloudy
11:53 PM 51.1 °F 48.0 °F 89% 30.01 in 9.0 mi Calm Calm - N/A   Scattered Clouds